Location: Alsip
(41.6689°N, 87.7387°W)
Time: 15:00:38
(UTC+00:00)

XW-2B - Pass Details

Date: 26 October 2021
Orbit: 504 x 522 km, 97.5° (Epoch: 04 December)

Event Time Altitude Azimuth Distance (km) Brightness Sun altitude
Rises 00:04:35 0° 207° (SSW) 2,609 ? -13.7°
Reaches altitude 10° 00:07:25 10° 231° (SW) 1,726 ? -14.3°
Maximum altitude 00:09:36 15° 267° (W) 1,442 ? -14.7°
Drops below altitude 10° 00:11:47 10° 304° (NW) 1,729 ? -15.1°
Sets 00:14:39 0° 328° (NNW) 2,618 ? -15.6°
